{"data":{"norad_id":48798,"intl_designator":"2021-045AH","name":"ONEWEB-0248","alt_names":[],"object_type":"PAYLOAD","status":"ACTIVE","operator":null,"country":"UK","launch_date":"2021-05-28","launch_site_code":"VOSTO","launch_vehicle":null,"mission":null,"orbit_class":"UNKNOWN","rcs_meters":null,"size_class":null,"mass_kg":null,"dimensions":null,"purposes":["comms"],"wikipedia_slug":null,"has_3d_model":false,"image_url":null,"decayed_at":null,"tle_current":{"epoch":"2026-05-24T20:08:01.658112Z","epoch_age_seconds":82168,"freshness":"FRESH","line1":"1 48798U 21045AH  26144.83890808 -.00000033  00000+0 -12132-3 0  9998","line2":"2 48798  87.8998 263.8407 0001395  99.1831 260.9457 13.15546736241344","mean_motion":13.15546736,"eccentricity":0.0001395,"inclination_deg":87.8998,"raan_deg":263.8407,"arg_perigee_deg":99.1831,"mean_anomaly_deg":260.9457,"bstar":-0.00012132,"rev_number":24134,"period_min":109.46019328651,"perigee_km":1200.7203372825,"apogee_km":1202.8351334937,"semimajor_km":7579.9147353881,"source":"CELESTRAK","updated_at":"2026-05-25T13:38:22.448180Z"}}}